TimeEDT,TemperatureF,Dew PointF,Humidity,Sea Level PressureIn,VisibilityMPH,Wind Direction,Wind SpeedMPH,Gust SpeedMPH,PrecipitationIn,Events,Conditions,WindDirDegrees,DateUTC
12:15 AM,42.8,39.2,87,29.81,10.0,South,6.9,-,N/A,,Clear,190,2012-10-19 04:15:00
12:35 AM,42.8,39.2,87,29.81,10.0,South,4.6,-,N/A,,Clear,190,2012-10-19 04:35:00
12:55 AM,42.8,39.2,87,29.81,1.8,South,4.6,-,N/A,,Clear,170,2012-10-19 04:55:00
1:15 AM,42.8,39.2,87,29.81,3.0,South,5.8,-,N/A,,Clear,180,2012-10-19 05:15:00
1:35 AM,42.8,39.2,87,29.81,10.0,South,5.8,-,N/A,,Clear,190,2012-10-19 05:35:00
1:55 AM,41.0,39.2,93,29.80,10.0,South,5.8,-,N/A,,Clear,170,2012-10-19 05:55:00
2:15 AM,41.0,39.2,93,29.80,10.0,South,6.9,-,N/A,,Clear,170,2012-10-19 06:15:00
2:35 AM,41.0,39.2,93,29.80,10.0,South,6.9,-,N/A,,Clear,190,2012-10-19 06:35:00
2:55 AM,41.0,37.4,87,29.80,10.0,South,8.1,-,N/A,,Clear,180,2012-10-19 06:55:00
3:15 AM,41.0,39.2,93,29.78,10.0,South,4.6,-,N/A,,Clear,170,2012-10-19 07:15:00
3:35 AM,41.0,39.2,93,29.78,10.0,South,4.6,-,N/A,,Clear,190,2012-10-19 07:35:00
3:55 AM,39.2,37.4,93,29.78,10.0,South,5.8,-,N/A,,Clear,180,2012-10-19 07:55:00
4:15 AM,39.2,37.4,93,29.79,10.0,South,5.8,-,N/A,,Clear,190,2012-10-19 08:15:00
4:35 AM,39.2,37.4,93,29.78,10.0,South,5.8,-,N/A,,Clear,170,2012-10-19 08:35:00
4:55 AM,39.2,37.4,93,29.78,10.0,South,6.9,-,N/A,,Scattered Clouds,180,2012-10-19 08:55:00
5:15 AM,39.2,37.4,93,29.77,10.0,South,5.8,-,N/A,,Overcast,180,2012-10-19 09:15:00
5:35 AM,39.2,37.4,93,29.77,1.5,South,5.8,-,N/A,,Mostly Cloudy,190,2012-10-19 09:35:00
5:55 AM,39.2,35.6,87,29.76,1.8,South,5.8,-,N/A,,Mostly Cloudy,180,2012-10-19 09:55:00
6:15 AM,39.2,37.4,93,29.76,2.0,South,5.8,-,N/A,,Mostly Cloudy,170,2012-10-19 10:15:00
6:35 AM,39.2,37.4,93,29.76,6.0,South,4.6,-,N/A,,Partly Cloudy,170,2012-10-19 10:35:00
6:55 AM,39.2,37.4,93,29.76,10.0,SSE,5.8,-,N/A,,Partly Cloudy,160,2012-10-19 10:55:00
7:15 AM,37.4,35.6,93,29.76,1.0,SSE,5.8,-,N/A,,Clear,150,2012-10-19 11:15:00
7:35 AM,37.4,35.6,93,29.76,0.2,Calm,Calm,-,N/A,,Mostly Cloudy,0,2012-10-19 11:35:00
7:55 AM,37.4,35.6,93,29.76,0.5,South,4.6,-,N/A,,Mostly Cloudy,170,2012-10-19 11:55:00
8:15 AM,39.2,37.4,93,29.77,10.0,South,4.6,-,N/A,,Scattered Clouds,180,2012-10-19 12:15:00
8:35 AM,39.2,37.4,93,29.76,10.0,South,3.5,-,N/A,,Partly Cloudy,190,2012-10-19 12:35:00
8:55 AM,39.2,37.4,93,29.76,10.0,SSE,5.8,-,N/A,,Mostly Cloudy,160,2012-10-19 12:55:00
9:15 AM,41.0,37.4,87,29.76,10.0,South,5.8,-,N/A,,Scattered Clouds,170,2012-10-19 13:15:00
9:35 AM,42.8,39.2,87,29.75,10.0,SSE,6.9,-,N/A,,Clear,160,2012-10-19 13:35:00
9:55 AM,44.6,42.8,93,29.75,10.0,SSE,9.2,-,N/A,,Clear,160,2012-10-19 13:55:00
10:15 AM,46.4,42.8,87,29.75,10.0,SSE,8.1,-,N/A,,Clear,160,2012-10-19 14:15:00
10:35 AM,48.2,44.6,87,29.74,10.0,South,11.5,-,N/A,,Clear,170,2012-10-19 14:35:00
10:55 AM,51.8,44.6,76,29.73,10.0,South,10.4,-,N/A,,Clear,170,2012-10-19 14:55:00
11:15 AM,51.8,44.6,76,29.72,10.0,South,12.7,-,N/A,,Clear,170,2012-10-19 15:15:00
11:35 AM,55.4,46.4,72,29.72,10.0,South,11.5,-,N/A,,Clear,180,2012-10-19 15:35:00
11:55 AM,55.4,44.6,67,29.72,10.0,SSW,15.0,20.7,N/A,,Clear,200,2012-10-19 15:55:00
12:15 PM,55.4,42.8,63,29.70,10.0,South,8.1,16.1,N/A,,Clear,190,2012-10-19 16:15:00
12:35 PM,57.2,42.8,59,29.70,10.0,South,8.1,-,N/A,,Clear,170,2012-10-19 16:35:00
12:55 PM,59.0,42.8,55,29.69,9.0,South,9.2,16.1,N/A,,Partly Cloudy,180,2012-10-19 16:55:00
1:15 PM,60.8,39.2,45,29.68,10.0,SSW,11.5,16.1,N/A,,Partly Cloudy,210,2012-10-19 17:15:00
1:35 PM,60.8,37.4,42,29.67,10.0,South,9.2,-,N/A,,Clear,180,2012-10-19 17:35:00
1:55 PM,60.8,35.6,39,29.66,10.0,South,9.2,-,N/A,,Clear,190,2012-10-19 17:55:00
2:15 PM,60.8,33.8,36,29.66,10.0,SSW,10.4,-,N/A,,Clear,200,2012-10-19 18:15:00
2:35 PM,62.6,32.0,32,29.65,10.0,SSW,11.5,16.1,N/A,,Clear,200,2012-10-19 18:35:00
2:55 PM,62.6,32.0,32,29.64,10.0,SSW,10.4,-,N/A,,Clear,200,2012-10-19 18:55:00
3:15 PM,60.8,33.8,36,29.64,10.0,SW,9.2,-,N/A,,Partly Cloudy,220,2012-10-19 19:15:00
3:35 PM,62.6,35.6,37,29.64,10.0,SSW,11.5,-,N/A,,Clear,200,2012-10-19 19:35:00
3:55 PM,60.8,33.8,36,29.63,10.0,South,10.4,-,N/A,,Partly Cloudy,190,2012-10-19 19:55:00
4:15 PM,60.8,33.8,36,29.63,10.0,South,8.1,-,N/A,,Scattered Clouds,170,2012-10-19 20:15:00
4:35 PM,60.8,33.8,36,29.62,10.0,South,8.1,-,N/A,,Mostly Cloudy,190,2012-10-19 20:35:00
4:55 PM,60.8,33.8,36,29.62,10.0,South,6.9,-,N/A,,Mostly Cloudy,180,2012-10-19 20:55:00
5:15 PM,60.8,33.8,36,29.62,10.0,South,5.8,-,N/A,,Overcast,180,2012-10-19 21:15:00
5:35 PM,60.8,32.0,34,29.62,10.0,South,5.8,-,N/A,,Mostly Cloudy,190,2012-10-19 21:35:00
5:55 PM,59.0,33.8,39,29.62,10.0,SSW,4.6,-,N/A,,Mostly Cloudy,200,2012-10-19 21:55:00
6:15 PM,57.2,33.8,41,29.62,10.0,South,3.5,-,N/A,,Overcast,190,2012-10-19 22:15:00
6:35 PM,57.2,33.8,41,29.62,10.0,South,3.5,-,N/A,,Overcast,190,2012-10-19 22:35:00
6:55 PM,57.2,33.8,41,29.63,10.0,SSW,4.6,-,N/A,,Overcast,210,2012-10-19 22:55:00
7:15 PM,57.2,33.8,41,29.63,10.0,SW,4.6,-,N/A,,Overcast,220,2012-10-19 23:15:00
7:35 PM,57.2,33.8,41,29.63,10.0,SW,4.6,-,N/A,,Overcast,230,2012-10-19 23:35:00
7:55 PM,57.2,33.8,41,29.63,10.0,SW,5.8,-,N/A,,Overcast,230,2012-10-19 23:55:00
8:15 PM,55.4,35.6,47,29.63,10.0,West,8.1,-,N/A,,Overcast,260,2012-10-20 00:15:00
8:35 PM,53.6,37.4,54,29.64,10.0,WSW,8.1,-,N/A,,Overcast,240,2012-10-20 00:35:00
8:55 PM,53.6,37.4,54,29.66,10.0,WSW,13.8,19.6,N/A,,Overcast,240,2012-10-20 00:55:00
9:15 PM,51.8,41.0,67,29.66,10.0,WSW,10.4,-,N/A,,Overcast,240,2012-10-20 01:15:00
9:35 PM,50.0,42.8,76,29.66,10.0,WSW,6.9,-,N/A,,Overcast,250,2012-10-20 01:35:00
9:55 PM,50.0,42.8,76,29.66,10.0,West,4.6,-,N/A,,Overcast,260,2012-10-20 01:55:00
10:15 PM,50.0,42.8,76,29.66,10.0,West,5.8,-,N/A,,Overcast,280,2012-10-20 02:15:00
10:35 PM,50.0,42.8,76,29.65,10.0,Calm,Calm,-,N/A,,Overcast,0,2012-10-20 02:35:00
10:55 PM,48.2,42.8,82,29.64,10.0,Calm,Calm,-,N/A,,Overcast,0,2012-10-20 02:55:00
11:15 PM,48.2,42.8,82,29.64,10.0,Calm,Calm,-,N/A,,Overcast,0,2012-10-20 03:15:00
11:35 PM,48.2,42.8,82,29.64,10.0,Calm,Calm,-,N/A,,Mostly Cloudy,0,2012-10-20 03:35:00
11:55 PM,46.4,42.8,87,29.64,10.0,SSW,3.5,-,N/A,,Mostly Cloudy,200,2012-10-20 03:55:00